| time (UTC) | temp C | wind direction | speed KPH | gust KPH | rain 1hr cm | rain 24hr cm | rain mn cm | humidity % | barometer mb |
| 20260507224049 | 11 | 0.0 | 0.0 | 0.00 | 0.00 | 0.00 | 71 | 1016.5 | |
| 20260507223111 | 11 | 0.0 | 0.0 | 0.00 | 0.00 | 0.00 | 71 | 1016.6 | |
| 20260507222032 | 11 | 0.0 | 0.0 | 0.00 | 0.00 | 0.00 | 70 | 1016.6 | |
| 20260507221137 | 11 | 0.0 | 0.0 | 0.00 | 0.00 | 0.00 | 71 | 1016.4 | |
| 20260507220017 | 11 | 0.0 | 0.0 | 0.00 | 0.00 | 0.00 | 69 | 1016.3 | |
| 20260507215122 | 11 | 0.0 | 1.6 | 0.00 | 0.00 | 0.00 | 68 | 1016.1 | |
| 20260507214106 | 12 | 83 | 0.0 | 3.2 | 0.00 | 0.00 | 0.00 | 68 | 1015.9 |
| 20260507213146 | 12 | 0.0 | 0.0 | 0.00 | 0.00 | 0.00 | 68 | 1016.0 | |
| 20260507212050 | 12 | 0.0 | 0.0 | 0.00 | 0.00 | 0.00 | 67 | 1016.0 | |
| 20260507211154 | 12 | 321 | 0.0 | 1.6 | 0.00 | 0.00 | 0.00 | 67 | 1016.0 |
| 20260507210037 | 12 | 353 | 0.0 | 1.6 | 0.00 | 0.00 | 0.00 | 67 | 1015.9 |
| 20260507205139 | 12 | 358 | 0.0 | 1.6 | 0.00 | 0.00 | 0.00 | 67 | 1015.9 |
| 20260507204020 | 13 | 288 | 1.6 | 3.2 | 0.00 | 0.00 | 0.00 | 66 | 1015.7 |
| 20260507203044 | 13 | 319 | 1.6 | 3.2 | 0.00 | 0.00 | 0.00 | 65 | 1015.5 |
| 20260507202149 | 13 | 0.0 | 1.6 | 0.00 | 0.00 | 0.00 | 62 | 1015.3 | |
| 20260507201028 | 14 | 0.0 | 0.0 | 0.00 | 0.00 | 0.00 | 56 | 1015.1 | |
| 20260507200053 | 14 | 0.0 | 1.6 | 0.00 | 0.00 | 0.00 | 56 | 1014.8 | |
| 20260507195118 | 15 | 317 | 0.0 | 1.6 | 0.00 | 0.00 | 0.00 | 54 | 1014.7 |
| 20260507194038 | 15 | 325 | 1.6 | 3.2 | 0.00 | 0.00 | 0.00 | 53 | 1014.5 |
| 20260507193103 | 15 | 0.0 | 1.6 | 0.00 | 0.00 | 0.00 | 53 | 1014.3 | |
| 20260507192024 | 15 | 14 | 0.0 | 1.6 | 0.00 | 0.00 | 0.00 | 52 | 1014.1 |
| 20260507191128 | 15 | 7 | 0.0 | 3.2 | 0.00 | 0.00 | 0.00 | 51 | 1014.0 |
| 20260507190152 | 16 | 20 | 1.6 | 3.2 | 0.00 | 0.00 | 0.00 | 52 | 1013.8 |
| 20260507185034 | 16 | 347 | 0.0 | 3.2 | 0.00 | 0.00 | 0.00 | 50 | 1013.5 |
| 20260507184058 | 16 | 12 | 1.6 | 6.4 | 0.00 | 0.00 | 0.00 | 50 | 1013.3 |
| 20260507183017 | 16 | 358 | 0.0 | 3.2 | 0.00 | 0.00 | 0.00 | 49 | 1013.2 |
| 20260507182042 | 17 | 312 | 1.6 | 3.2 | 0.00 | 0.00 | 0.00 | 48 | 1013.1 |
| 20260507181106 | 17 | 352 | 1.6 | 3.2 | 0.00 | 0.00 | 0.00 | 46 | 1012.8 |
| 20260507180027 | 17 | 18 | 1.6 | 6.4 | 0.00 | 0.00 | 0.00 | 45 | 1012.7 |
| 20260507175051 | 18 | 310 | 1.6 | 11.3 | 0.00 | 0.00 | 0.00 | 44 | 1012.6 |
| 20260507174116 | 18 | 167 | 1.6 | 6.4 | 0.00 | 0.00 | 0.00 | 43 | 1012.4 |
| 20260507173037 | 19 | 287 | 1.6 | 9.7 | 0.00 | 0.00 | 0.00 | 42 | 1012.2 |
| 20260507172100 | 20 | 263 | 1.6 | 6.4 | 0.00 | 0.00 | 0.00 | 41 | 1012.2 |
| 20260507171024 | 20 | 306 | 1.6 | 4.8 | 0.00 | 0.00 | 0.00 | 40 | 1012.1 |
| 20260507170045 | 21 | 350 | 1.6 | 4.8 | 0.00 | 0.00 | 0.00 | 37 | 1011.9 |
| 20260507165110 | 21 | 275 | 1.6 | 4.8 | 0.00 | 0.00 | 0.00 | 35 | 1011.9 |
| 20260507164029 | 20 | 266 | 3.2 | 6.4 | 0.00 | 0.00 | 0.00 | 35 | 1012.0 |
| 20260507163055 | 20 | 285 | 1.6 | 4.8 | 0.00 | 0.00 | 0.00 | 37 | 1011.9 |
| 20260507162017 | 21 | 326 | 0.0 | 3.2 | 0.00 | 0.00 | 0.00 | 36 | 1012.0 |
| 20260507161039 | 21 | 303 | 1.6 | 6.4 | 0.00 | 0.00 | 0.00 | 34 | 1012.0 |
| 20260507160104 | 21 | 345 | 0.0 | 4.8 | 0.00 | 0.00 | 0.00 | 34 | 1012.0 |
| 20260507155023 | 20 | 302 | 1.6 | 6.4 | 0.00 | 0.00 | 0.00 | 35 | 1012.0 |
| 20260507154048 | 21 | 264 | 1.6 | 9.7 | 0.00 | 0.08 | 0.00 | 34 | 1012.0 |
| 20260507153114 | 22 | 303 | 3.2 | 9.7 | 0.00 | 0.13 | 0.00 | 32 | 1012.0 |
| 20260507152033 | 22 | 337 | 1.6 | 4.8 | 0.00 | 0.18 | 0.00 | 31 | 1012.0 |
| 20260507151137 | 22 | 259 | 1.6 | 6.4 | 0.00 | 0.23 | 0.00 | 30 | 1012.1 |
| 20260507150058 | 22 | 315 | 1.6 | 4.8 | 0.00 | 0.30 | 0.00 | 30 | 1012.2 |
| 20260507145043 | 22 | 341 | 1.6 | 6.4 | 0.00 | 0.30 | 0.00 | 30 | 1012.2 |
| 20260507144107 | 21 | 292 | 1.6 | 4.8 | 0.00 | 0.30 | 0.00 | 34 | 1012.3 |
| 20260507143027 | 22 | 300 | 3.2 | 9.7 | 0.00 | 0.30 | 0.00 | 32 | 1012.4 |
| 20260507142131 | 21 | 343 | 1.6 | 4.8 | 0.00 | 0.30 | 0.00 | 32 | 1012.5 |
| 20260507141117 | 21 | 40 | 3.2 | 6.4 | 0.00 | 0.30 | 0.00 | 31 | 1012.5 |
| 20260507140036 | 21 | 268 | 4.8 | 9.7 | 0.00 | 0.30 | 0.00 | 29 | 1012.6 |
| 20260507135101 | 21 | 310 | 1.6 | 4.8 | 0.00 | 0.30 | 0.00 | 32 | 1012.7 |
| 20260507134021 | 21 | 123 | 1.6 | 4.8 | 0.00 | 0.30 | 0.00 | 31 | 1012.8 |
| 20260507133046 | 21 | 277 | 3.2 | 4.8 | 0.00 | 0.30 | 0.00 | 31 | 1013.0 |
| 20260507132110 | 21 | 135 | 1.6 | 4.8 | 0.00 | 0.30 | 0.00 | 31 | 1013.1 |
| 20260507131031 | 21 | 274 | 1.6 | 4.8 | 0.00 | 0.30 | 0.00 | 32 | 1013.3 |
| 20260507130055 | 20 | 16 | 1.6 | 3.2 | 0.00 | 0.30 | 0.00 | 33 | 1013.3 |
| 20260507125119 | 20 | 263 | 1.6 | 9.7 | 0.00 | 0.30 | 0.00 | 34 | 1013.3 |
| 20260507124040 | 20 | 0 | 1.6 | 6.4 | 0.00 | 0.30 | 0.00 | 34 | 1013.5 |
| 20260507123104 | 20 | 336 | 1.6 | 11.3 | 0.00 | 0.33 | 0.00 | 35 | 1013.6 |
| 20260507122026 | 20 | 352 | 1.6 | 4.8 | 0.00 | 0.36 | 0.00 | 36 | 1013.7 |
| 20260507121129 | 18 | 281 | 1.6 | 9.7 | 0.00 | 0.41 | 0.00 | 33 | 1013.8 |
| 20260507120114 | 20 | 293 | 1.6 | 4.8 | 0.00 | 0.43 | 0.00 | 32 | 1013.7 |
| 20260507115033 | 20 | 225 | 1.6 | 4.8 | 0.00 | 0.48 | 0.00 | 32 | 1013.7 |
| 20260507114059 | 18 | 341 | 1.6 | 4.8 | 0.00 | 0.51 | 0.00 | 39 | 1013.8 |
| 20260507113019 | 18 | 265 | 1.6 | 4.8 | 0.00 | 0.51 | 0.00 | 40 | 1013.9 |
| 20260507112044 | 18 | 39 | 1.6 | 3.2 | 0.00 | 0.53 | 0.00 | 41 | 1014.1 |
| 20260507111107 | 17 | 90 | 1.6 | 6.4 | 0.00 | 0.56 | 0.00 | 43 | 1014.2 |
| 20260507110028 | 18 | 96 | 1.6 | 4.8 | 0.00 | 0.58 | 0.00 | 44 | 1014.4 |
| 20260507105053 | 17 | 88 | 1.6 | 4.8 | 0.00 | 0.64 | 0.00 | 45 | 1014.4 |
| 20260507104157 | 17 | 95 | 1.6 | 4.8 | 0.00 | 0.66 | 0.00 | 46 | 1014.5 |
| 20260507103037 | 17 | 351 | 1.6 | 3.2 | 0.00 | 0.69 | 0.00 | 46 | 1014.7 |
| 20260507102101 | 17 | 89 | 1.6 | 6.4 | 0.00 | 0.69 | 0.00 | 48 | 1014.8 |
| 20260507101103 | 17 | 96 | 3.2 | 6.4 | 0.00 | 0.69 | 0.00 | 47 | 1014.9 |
| 20260507100047 | 17 | 76 | 3.2 | 6.4 | 0.00 | 0.69 | 0.00 | 47 | 1015.0 |
| 20260507095110 | 17 | 100 | 1.6 | 6.4 | 0.00 | 0.69 | 0.00 | 48 | 1014.9 |
| 20260507094032 | 16 | 106 | 1.6 | 4.8 | 0.00 | 0.69 | 0.00 | 50 | 1015.0 |
| 20260507093056 | 16 | 82 | 1.6 | 9.7 | 0.00 | 0.69 | 0.00 | 52 | 1015.1 |
| 20260507092016 | 16 | 50 | 1.6 | 6.4 | 0.00 | 0.69 | 0.00 | 55 | 1015.1 |
| 20260507091040 | 15 | 123 | 3.2 | 6.4 | 0.00 | 0.69 | 0.00 | 57 | 1015.2 |
| 20260507090145 | 15 | 101 | 4.8 | 11.3 | 0.00 | 0.69 | 0.00 | 58 | 1015.2 |
| 20260507085025 | 15 | 131 | 4.8 | 12.9 | 0.00 | 0.71 | 0.00 | 61 | 1015.2 |
| 20260507084050 | 14 | 68 | 3.2 | 9.7 | 0.00 | 0.71 | 0.00 | 63 | 1015.4 |
| 20260507083114 | 14 | 102 | 4.8 | 9.7 | 0.00 | 0.71 | 0.00 | 65 | 1015.3 |
| 20260507082115 | 13 | 103 | 3.2 | 11.3 | 0.00 | 0.71 | 0.00 | 66 | 1015.4 |
| 20260507081058 | 13 | 92 | 4.8 | 11.3 | 0.00 | 0.71 | 0.00 | 67 | 1015.5 |
| 20260507080019 | 12 | 107 | 4.8 | 9.7 | 0.00 | 0.71 | 0.00 | 71 | 1015.6 |
| 20260507075124 | 12 | 90 | 3.2 | 9.7 | 0.00 | 0.71 | 0.00 | 71 | 1015.8 |
| 20260507074108 | 12 | 108 | 3.2 | 9.7 | 0.00 | 0.71 | 0.00 | 72 | 1015.9 |
| 20260507073028 | 12 | 122 | 3.2 | 9.7 | 0.00 | 0.71 | 0.00 | 75 | 1016.1 |
| 20260507072053 | 11 | 52 | 1.6 | 3.2 | 0.00 | 0.71 | 0.00 | 77 | 1015.9 |
| 20260507071118 | 11 | 136 | 1.6 | 3.2 | 0.00 | 0.74 | 0.00 | 78 | 1016.0 |
| 20260507070038 | 11 | 69 | 1.6 | 4.8 | 0.00 | 0.76 | 0.00 | 80 | 1015.9 |
| 20260507065102 | 10 | 94 | 0.0 | 3.2 | 0.00 | 0.79 | 0.00 | 84 | 1015.9 |
| 20260507064023 | 10 | 61 | 1.6 | 4.8 | 0.00 | 0.79 | 0.00 | 88 | 1015.9 |
| 20260507063047 | 9 | 0.0 | 3.2 | 0.00 | 0.79 | 0.00 | 89 | 1016.0 | |
| 20260507062111 | 9 | 91 | 0.0 | 1.6 | 0.00 | 0.79 | 0.00 | 90 | 1016.0 |
| 20260507061032 | 9 | 85 | 0.0 | 3.2 | 0.00 | 0.79 | 0.00 | 90 | 1015.9 |
| 20260507060056 | 8 | 105 | 0.0 | 1.6 | 0.00 | 0.79 | 0.00 | 91 | 1015.7 |
| 20260507055017 | 8 | 66 | 0.0 | 3.2 | 0.00 | 0.79 | 0.00 | 91 | 1015.8 |
| 20260507054040 | 8 | 55 | 0.0 | 3.2 | 0.00 | 0.79 | 0.00 | 92 | 1015.8 |
| 20260507053146 | 8 | 66 | 0.0 | 3.2 | 0.00 | 0.79 | 0.00 | 92 | 1015.7 |
| 20260507052027 | 8 | 78 | 0.0 | 3.2 | 0.00 | 0.79 | 0.00 | 92 | 1015.7 |
| 20260507051130 | 8 | 63 | 0.0 | 1.6 | 0.00 | 0.79 | 0.00 | 92 | 1015.5 |
| 20260507050115 | 8 | 49 | 0.0 | 1.6 | 0.00 | 0.79 | 0.00 | 93 | 1015.4 |
| 20260507045035 | 8 | 56 | 0.0 | 1.6 | 0.00 | 0.79 | 0.00 | 93 | 1015.3 |
| 20260507044100 | 8 | 0.0 | 0.0 | 0.00 | 0.79 | 0.00 | 93 | 1015.2 | |
| 20260507043021 | 8 | 0.0 | 0.0 | 0.00 | 0.79 | 0.00 | 94 | 1015.2 | |
| 20260507042044 | 8 | 0.0 | 0.0 | 0.00 | 0.79 | 0.00 | 94 | 1015.1 | |
| 20260507041110 | 8 | 0.0 | 1.6 | 0.00 | 0.79 | 0.00 | 94 | 1015.1 | |
| 20260507040030 | 8 | 0.0 | 1.6 | 0.00 | 0.79 | 0.00 | 94 | 1015.1 | |
| 20260507035054 | 7 | 0.0 | 0.0 | 0.00 | 0.79 | 0.00 | 94 | 1015.1 | |
| 20260507034118 | 7 | 0.0 | 0.0 | 0.00 | 0.79 | 0.00 | 94 | 1015.1 | |
| 20260507033039 | 7 | 0.0 | 0.0 | 0.00 | 0.79 | 0.00 | 94 | 1015.1 | |
| 20260507032103 | 7 | 0.0 | 0.0 | 0.00 | 0.79 | 0.00 | 94 | 1015.0 | |
| 20260507031023 | 7 | 0.0 | 0.0 | 0.00 | 0.79 | 0.00 | 95 | 1015.0 | |
| 20260507030048 | 7 | 0.0 | 1.6 | 0.00 | 0.79 | 0.00 | 94 | 1015.0 | |
| 20260507025153 | 7 | 0.0 | 0.0 | 0.00 | 0.79 | 0.00 | 94 | 1015.1 | |
| 20260507024032 | 7 | 8 | 0.0 | 1.6 | 0.00 | 0.79 | 0.00 | 94 | 1015.0 |
| 20260507023057 | 7 | 0.0 | 0.0 | 0.00 | 0.79 | 0.00 | 94 | 1014.7 | |
| 20260507022018 | 7 | 0.0 | 0.0 | 0.00 | 0.79 | 0.00 | 94 | 1014.7 | |
| 20260507021042 | 7 | 0.0 | 0.0 | 0.00 | 0.79 | 0.00 | 94 | 1014.6 | |
| 20260507020146 | 7 | 67 | 1.6 | 1.6 | 0.00 | 0.79 | 0.00 | 95 | 1014.6 |
| 20260507015026 | 7 | 54 | 0.0 | 1.6 | 0.00 | 0.79 | 0.00 | 96 | 1014.5 |
| 20260507014053 | 7 | 0.0 | 1.6 | 0.00 | 0.79 | 0.00 | 96 | 1014.4 | |
| 20260507013116 | 7 | 0.0 | 0.0 | 0.00 | 0.79 | 0.00 | 96 | 1014.4 | |
| 20260507012036 | 7 | 0.0 | 1.6 | 0.00 | 0.79 | 0.00 | 96 | 1014.3 | |
| 20260507011100 | 7 | 0.0 | 0.0 | 0.00 | 0.79 | 0.00 | 96 | 1014.3 | |
| 20260507010021 | 7 | 0.0 | 0.0 | 0.00 | 0.79 | 0.00 | 96 | 1014.3 | |
| 20260507005046 | 7 | 0.0 | 0.0 | 0.00 | 0.79 | 0.00 | 96 | 1014.4 | |
| 20260507004110 | 7 | 0.0 | 0.0 | 0.00 | 0.79 | 0.00 | 96 | 1014.2 | |
| 20260507003031 | 7 | 0.0 | 0.0 | 0.00 | 0.79 | 0.00 | 96 | 1014.2 | |
| 20260507002054 | 7 | 0.0 | 0.0 | 0.00 | 0.79 | 0.00 | 96 | 1014.2 | |
| 20260507001119 | 7 | 0.0 | 0.0 | 0.00 | 0.79 | 0.00 | 96 | 1014.1 | |
| 20260507000040 | 8 | 0.0 | 0.0 | 0.00 | 0.79 | 0.00 | 96 | 1014.1 | |
| 20260506235143 | 8 | 0.0 | 0.0 | 0.00 | 0.79 | 0.00 | 95 | 1014.1 | |
| 20260506234025 | 8 | 0.0 | 0.0 | 0.00 | 0.79 | 0.00 | 95 | 1014.2 | |
| 20260506233049 | 8 | 0.0 | 0.0 | 0.00 | 0.79 | 0.00 | 95 | 1014.2 | |
| 20260506232113 | 8 | 0.0 | 0.0 | 0.00 | 0.79 | 0.00 | 94 | 1014.3 | |
| 20260506231113 | 8 | 0.0 | 0.0 | 0.00 | 0.79 | 0.00 | 94 | 1014.4 | |
| 20260506230058 | 8 | 0.0 | 0.0 | 0.00 | 0.79 | 0.00 | 93 | 1014.3 | |
| 20260506225018 | 8 | 0.0 | 0.0 | 0.00 | 0.79 | 0.00 | 93 | 1014.2 |